Location: Newark
(44.3681°N, 100.3364°W)
Time: 10:13:54
(UTC+00:00)

S-56A Canister/Altair - Pass Details

Date: 02 March 2020
Orbit: 634 x 2498 km, 38.9° (Epoch: 28 March)

Event Time Altitude Azimuth Distance (km) Brightness Sun altitude
Rises 14:15:56 0° 220° (SW) 4,666 11.3 9.6°
Reaches altitude 10° 14:18:52 10° 213° (SSW) 3,922 11.0 10.1°
Maximum altitude 14:28:53 43° 146° (SSE) 2,735 11.2 11.7°
Drops below altitude 10° 14:42:02 10° 82° (E) 5,108 12.9 13.9°
Sets 14:46:27 0° 77° (ENE) 6,176 13.0 14.6°
